Year,Month,Day,Hour,Minute,Value (Times are PST for temperature in C)
2016,05,21,00,00,12.30
2016,05,21,00,01,12.30
2016,05,21,00,02,12.30
2016,05,21,00,03,12.20
2016,05,21,00,04,12.20
2016,05,21,00,05,12.20
2016,05,21,00,06,12.20
2016,05,21,00,07,12.10
2016,05,21,00,08,12.10
2016,05,21,00,09,12.10
2016,05,21,00,10,12.10
2016,05,21,00,11,12.10
2016,05,21,00,12,12.00
2016,05,21,00,13,12.00
2016,05,21,00,14,12.00
2016,05,21,00,15,12.00
2016,05,21,00,16,11.90
2016,05,21,00,17,12.00
2016,05,21,00,18,12.00
2016,05,21,00,19,12.00
2016,05,21,00,20,12.00
2016,05,21,00,21,12.00
2016,05,21,00,22,12.00
2016,05,21,00,23,12.00
2016,05,21,00,24,12.00
2016,05,21,00,25,12.00
2016,05,21,00,26,12.10
2016,05,21,00,27,12.10
2016,05,21,00,28,12.10
2016,05,21,00,29,12.10
2016,05,21,00,30,12.10
2016,05,21,00,31,12.20
2016,05,21,00,32,12.20
2016,05,21,00,33,12.30
2016,05,21,00,34,12.40
2016,05,21,00,35,12.40
2016,05,21,00,36,12.50
2016,05,21,00,37,12.60
2016,05,21,00,38,12.70
2016,05,21,00,39,12.70
2016,05,21,00,40,12.80
2016,05,21,00,41,12.80
2016,05,21,00,42,12.90
2016,05,21,00,43,12.90
2016,05,21,00,44,13.00
2016,05,21,00,45,13.10
2016,05,21,00,46,13.10
2016,05,21,00,47,13.20
2016,05,21,00,48,13.20
2016,05,21,00,49,13.20
2016,05,21,00,50,13.30
2016,05,21,00,51,13.30
2016,05,21,00,52,13.30
2016,05,21,00,53,13.30
2016,05,21,00,54,13.30
2016,05,21,00,55,13.30
2016,05,21,00,56,13.40
2016,05,21,00,57,13.40
2016,05,21,00,58,13.40
2016,05,21,00,59,13.40
2016,05,21,01,00,13.40
2016,05,21,01,01,13.40
2016,05,21,01,02,13.40
2016,05,21,01,03,13.40
2016,05,21,01,04,13.40
2016,05,21,01,05,13.40
2016,05,21,01,06,13.40
2016,05,21,01,07,13.40
2016,05,21,01,08,13.40
2016,05,21,01,09,13.30
2016,05,21,01,10,13.30
2016,05,21,01,11,13.30
2016,05,21,01,12,13.20
2016,05,21,01,13,13.20
2016,05,21,01,14,13.20
2016,05,21,01,15,13.10
2016,05,21,01,16,13.10
2016,05,21,01,17,13.10
2016,05,21,01,18,13.10
2016,05,21,01,19,13.10
2016,05,21,01,20,13.10
2016,05,21,01,21,13.10
2016,05,21,01,22,13.10
2016,05,21,01,23,13.10
2016,05,21,01,24,13.10
2016,05,21,01,25,13.10
2016,05,21,01,26,13.10
2016,05,21,01,27,13.10
2016,05,21,01,28,13.10
2016,05,21,01,29,13.10
2016,05,21,01,30,13.10
2016,05,21,01,31,13.10
2016,05,21,01,32,13.10
2016,05,21,01,33,13.10
2016,05,21,01,34,13.20
2016,05,21,01,35,13.20
2016,05,21,01,36,13.20
2016,05,21,01,37,13.20
2016,05,21,01,38,13.20
2016,05,21,01,39,13.20
2016,05,21,01,40,13.20
2016,05,21,01,41,13.20
2016,05,21,01,42,13.20
2016,05,21,01,43,13.20
2016,05,21,01,44,13.20
2016,05,21,01,45,13.30
2016,05,21,01,46,13.30
2016,05,21,01,47,13.30
2016,05,21,01,48,13.30
2016,05,21,01,49,13.30
2016,05,21,01,50,13.30
2016,05,21,01,51,13.40
2016,05,21,01,52,13.40
2016,05,21,01,53,13.40
2016,05,21,01,54,13.40
2016,05,21,01,55,13.40
2016,05,21,01,56,13.40
2016,05,21,01,57,13.40
2016,05,21,01,58,13.40
2016,05,21,01,59,13.40
2016,05,21,02,00,13.40
2016,05,21,02,01,13.40
2016,05,21,02,02,13.40
2016,05,21,02,03,13.40
2016,05,21,02,04,13.50
2016,05,21,02,05,13.50
2016,05,21,02,06,13.50
2016,05,21,02,07,13.60
2016,05,21,02,08,13.60
2016,05,21,02,09,13.70
2016,05,21,02,10,13.70
2016,05,21,02,11,13.70
2016,05,21,02,12,13.70
2016,05,21,02,13,13.70
2016,05,21,02,14,13.60
2016,05,21,02,15,13.60
2016,05,21,02,16,13.60
2016,05,21,02,17,13.60
2016,05,21,02,18,13.60
2016,05,21,02,19,13.60
2016,05,21,02,20,13.60
2016,05,21,02,21,13.60
2016,05,21,02,22,13.60
2016,05,21,02,23,13.60
2016,05,21,02,24,13.60
2016,05,21,02,25,13.60
2016,05,21,02,26,13.60
2016,05,21,02,27,13.60
2016,05,21,02,28,13.50
2016,05,21,02,29,13.50
2016,05,21,02,30,13.50
2016,05,21,02,31,13.50
2016,05,21,02,32,13.40
2016,05,21,02,33,13.40
2016,05,21,02,34,13.40
2016,05,21,02,35,13.40
2016,05,21,02,36,13.40
2016,05,21,02,37,13.40
2016,05,21,02,38,13.40
2016,05,21,02,39,13.40
2016,05,21,02,40,13.40
2016,05,21,02,41,13.40
2016,05,21,02,42,13.40
2016,05,21,02,43,13.40
2016,05,21,02,44,13.40
2016,05,21,02,45,13.40
2016,05,21,02,46,13.40
2016,05,21,02,47,13.30
2016,05,21,02,48,13.30
2016,05,21,02,49,13.30
2016,05,21,02,50,13.40
2016,05,21,02,51,13.30
2016,05,21,02,52,13.40
2016,05,21,02,53,13.50
2016,05,21,02,54,13.50
2016,05,21,02,55,13.50
2016,05,21,02,56,13.60
2016,05,21,02,57,13.60
2016,05,21,02,58,13.60
2016,05,21,02,59,13.60
2016,05,21,03,00,13.70
2016,05,21,03,01,13.70
2016,05,21,03,02,13.70
2016,05,21,03,03,13.70
2016,05,21,03,04,13.70
2016,05,21,03,05,13.70
2016,05,21,03,06,13.80
2016,05,21,03,07,13.80
2016,05,21,03,08,13.80
2016,05,21,03,09,13.80
2016,05,21,03,10,13.80
2016,05,21,03,11,13.80
2016,05,21,03,12,13.80
2016,05,21,03,13,13.80
2016,05,21,03,14,13.80
2016,05,21,03,15,13.80
2016,05,21,03,16,13.70
2016,05,21,03,17,13.70
2016,05,21,03,18,13.70
2016,05,21,03,19,13.70
2016,05,21,03,20,13.70
2016,05,21,03,21,13.70
2016,05,21,03,22,13.70
2016,05,21,03,23,13.70
2016,05,21,03,24,13.70
2016,05,21,03,25,13.70
2016,05,21,03,26,13.70
2016,05,21,03,27,13.70
2016,05,21,03,28,13.70
2016,05,21,03,29,13.70
2016,05,21,03,30,13.70
2016,05,21,03,31,13.60
2016,05,21,03,32,13.60
2016,05,21,03,33,13.60
2016,05,21,03,34,13.60
2016,05,21,03,35,13.50
2016,05,21,03,36,13.50
2016,05,21,03,37,13.50
2016,05,21,03,38,13.50
2016,05,21,03,39,13.50
2016,05,21,03,40,13.40
2016,05,21,03,41,13.40
2016,05,21,03,42,13.40
2016,05,21,03,43,13.40
2016,05,21,03,44,13.40
2016,05,21,03,45,13.30
2016,05,21,03,46,13.30
2016,05,21,03,47,13.30
2016,05,21,03,48,13.30
2016,05,21,03,49,13.30
2016,05,21,03,50,13.30
2016,05,21,03,51,13.30
2016,05,21,03,52,13.30
2016,05,21,03,53,13.20
2016,05,21,03,54,13.20
2016,05,21,03,55,13.20
2016,05,21,03,56,13.10
2016,05,21,03,57,13.10
2016,05,21,03,58,13.10
2016,05,21,03,59,13.00
2016,05,21,04,00,13.10
2016,05,21,04,01,13.10
2016,05,21,04,02,13.10
2016,05,21,04,03,13.10
2016,05,21,04,04,13.10
2016,05,21,04,05,13.10
2016,05,21,04,06,13.10
2016,05,21,04,07,13.10
2016,05,21,04,08,13.10
2016,05,21,04,09,13.10
2016,05,21,04,10,13.10
2016,05,21,04,11,13.10
2016,05,21,04,12,13.10
2016,05,21,04,13,13.10
2016,05,21,04,14,13.00
2016,05,21,04,15,13.00
2016,05,21,04,16,13.00
2016,05,21,04,17,13.00
2016,05,21,04,18,13.00
2016,05,21,04,19,13.00
2016,05,21,04,20,13.00
2016,05,21,04,21,13.00
2016,05,21,04,22,13.00
2016,05,21,04,23,13.00
2016,05,21,04,24,13.10
2016,05,21,04,25,13.10
2016,05,21,04,26,13.10
2016,05,21,04,27,13.10
2016,05,21,04,28,13.20
2016,05,21,04,29,13.10
2016,05,21,04,30,13.10
2016,05,21,04,31,13.10
2016,05,21,04,32,13.10
2016,05,21,04,33,13.10
2016,05,21,04,34,13.10
2016,05,21,04,35,13.10
2016,05,21,04,36,13.10
2016,05,21,04,37,13.10
2016,05,21,04,38,13.10
2016,05,21,04,39,13.00
2016,05,21,04,40,13.00
2016,05,21,04,41,13.00
2016,05,21,04,42,12.90
2016,05,21,04,43,12.90
2016,05,21,04,44,12.80
2016,05,21,04,45,12.70
2016,05,21,04,46,12.70
2016,05,21,04,47,12.60
2016,05,21,04,48,12.50
2016,05,21,04,49,12.40
2016,05,21,04,50,12.30
2016,05,21,04,51,12.20
2016,05,21,04,52,12.10
2016,05,21,04,53,12.10
2016,05,21,04,54,12.00
2016,05,21,04,55,11.90
2016,05,21,04,56,11.80
2016,05,21,04,57,11.80
2016,05,21,04,58,11.70
2016,05,21,04,59,11.60
2016,05,21,05,00,11.60
2016,05,21,05,01,11.50
2016,05,21,05,02,11.40
2016,05,21,05,03,11.30
2016,05,21,05,04,11.30
2016,05,21,05,05,11.20
2016,05,21,05,06,11.20
2016,05,21,05,07,11.20
2016,05,21,05,08,11.10
2016,05,21,05,09,11.10
2016,05,21,05,10,11.10
2016,05,21,05,11,11.00
2016,05,21,05,12,11.00
2016,05,21,05,13,10.90
2016,05,21,05,14,10.90
2016,05,21,05,15,10.80
2016,05,21,05,16,10.80
2016,05,21,05,17,10.80
2016,05,21,05,18,10.70
2016,05,21,05,19,10.70
2016,05,21,05,20,10.70
2016,05,21,05,21,10.60
2016,05,21,05,22,10.50
2016,05,21,05,23,10.50
2016,05,21,05,24,10.40
2016,05,21,05,25,10.30
2016,05,21,05,26,10.30
2016,05,21,05,27,10.20
2016,05,21,05,28,10.10
2016,05,21,05,29,10.10
2016,05,21,05,30,10.00
2016,05,21,05,31,10.00
2016,05,21,05,32,9.90
2016,05,21,05,33,9.90
2016,05,21,05,34,9.90
2016,05,21,05,35,9.80
2016,05,21,05,36,9.80
2016,05,21,05,37,9.80
2016,05,21,05,38,9.70
2016,05,21,05,39,9.70
2016,05,21,05,40,9.60
2016,05,21,05,41,9.60
2016,05,21,05,42,9.50
2016,05,21,05,43,9.50
2016,05,21,05,44,9.40
2016,05,21,05,45,9.30
2016,05,21,05,46,9.30
2016,05,21,05,47,9.30
2016,05,21,05,48,9.20
2016,05,21,05,49,9.20
2016,05,21,05,50,9.20
2016,05,21,05,51,9.20
2016,05,21,05,52,9.20
2016,05,21,05,53,9.20
2016,05,21,05,54,9.20
2016,05,21,05,55,9.20
2016,05,21,05,56,9.20
2016,05,21,05,57,9.10
2016,05,21,05,58,9.10
2016,05,21,05,59,9.10
2016,05,21,06,00,9.10
2016,05,21,06,01,9.10
2016,05,21,06,02,9.10
2016,05,21,06,03,9.10
2016,05,21,06,04,9.10
2016,05,21,06,05,9.20
2016,05,21,06,06,9.20
2016,05,21,06,07,9.20
2016,05,21,06,08,9.20
2016,05,21,06,09,9.30
2016,05,21,06,10,9.30
2016,05,21,06,11,9.30
2016,05,21,06,12,9.30
2016,05,21,06,13,9.30
2016,05,21,06,14,9.30
2016,05,21,06,15,9.30
2016,05,21,06,16,9.30
2016,05,21,06,17,9.30
2016,05,21,06,18,9.40
2016,05,21,06,19,9.40
2016,05,21,06,20,9.40
2016,05,21,06,21,9.40
2016,05,21,06,22,9.40
2016,05,21,06,23,9.40
2016,05,21,06,24,9.40
2016,05,21,06,25,9.40
2016,05,21,06,26,9.40
2016,05,21,06,27,9.40
2016,05,21,06,28,9.40
2016,05,21,06,29,9.40
2016,05,21,06,30,9.30
2016,05,21,06,31,9.40
2016,05,21,06,32,9.40
2016,05,21,06,33,9.40
2016,05,21,06,34,9.40
2016,05,21,06,35,9.40
2016,05,21,06,36,9.40
2016,05,21,06,37,9.40
2016,05,21,06,38,9.50
2016,05,21,06,39,9.50
2016,05,21,06,40,9.50
2016,05,21,06,41,9.60
2016,05,21,06,42,9.60
2016,05,21,06,43,9.60
2016,05,21,06,44,9.70
2016,05,21,06,45,9.70
2016,05,21,06,46,9.80
2016,05,21,06,47,9.80
2016,05,21,06,48,9.90
2016,05,21,06,49,10.00
2016,05,21,06,50,10.10
2016,05,21,06,51,10.20
2016,05,21,06,52,10.30
2016,05,21,06,53,10.30
2016,05,21,06,54,10.40
2016,05,21,06,55,10.40
2016,05,21,06,56,10.50
2016,05,21,06,57,10.60
2016,05,21,06,58,10.60
2016,05,21,06,59,10.70
2016,05,21,07,00,10.70
2016,05,21,07,01,10.80
2016,05,21,07,02,10.80
2016,05,21,07,03,10.80
2016,05,21,07,04,10.80
2016,05,21,07,05,10.80
2016,05,21,07,06,10.80
2016,05,21,07,07,10.80
2016,05,21,07,08,10.80
2016,05,21,07,09,10.80
2016,05,21,07,10,10.90
2016,05,21,07,11,10.90
2016,05,21,07,12,10.80
2016,05,21,07,13,10.80
2016,05,21,07,14,10.80
2016,05,21,07,15,10.80
2016,05,21,07,16,10.80
2016,05,21,07,17,10.80
2016,05,21,07,18,10.80
2016,05,21,07,19,10.80
2016,05,21,07,20,10.80
2016,05,21,07,21,10.80
2016,05,21,07,22,10.80
2016,05,21,07,23,10.80
2016,05,21,07,24,10.80
2016,05,21,07,25,10.80
2016,05,21,07,26,10.80
2016,05,21,07,27,10.80
2016,05,21,07,28,10.90
2016,05,21,07,29,10.90
2016,05,21,07,30,10.90
2016,05,21,07,31,10.90
2016,05,21,07,32,10.90
2016,05,21,07,33,10.90
2016,05,21,07,34,10.90
2016,05,21,07,35,10.90
2016,05,21,07,36,10.90
2016,05,21,07,37,11.00
2016,05,21,07,38,11.00
2016,05,21,07,39,11.00
2016,05,21,07,40,11.00
2016,05,21,07,41,11.00
2016,05,21,07,42,11.00
2016,05,21,07,43,11.10
2016,05,21,07,44,11.10
2016,05,21,07,45,11.10
2016,05,21,07,46,11.10
2016,05,21,07,47,11.10
2016,05,21,07,48,11.10
2016,05,21,07,49,11.10
2016,05,21,07,50,11.10
2016,05,21,07,51,11.20
2016,05,21,07,52,11.20
2016,05,21,07,53,11.20
2016,05,21,07,54,11.20
2016,05,21,07,55,11.30
2016,05,21,07,56,11.30
2016,05,21,07,57,11.30
2016,05,21,07,58,11.40
2016,05,21,07,59,11.40
2016,05,21,08,00,11.50
2016,05,21,08,01,11.60
2016,05,21,08,02,11.60
2016,05,21,08,03,11.70
2016,05,21,08,04,11.80
2016,05,21,08,05,11.90
2016,05,21,08,06,12.00
2016,05,21,08,07,12.10
2016,05,21,08,08,12.20
2016,05,21,08,09,12.30
2016,05,21,08,10,12.50
2016,05,21,08,11,12.60
2016,05,21,08,12,12.70
2016,05,21,08,13,12.90
2016,05,21,08,14,13.00
2016,05,21,08,15,13.20
2016,05,21,08,16,13.20
2016,05,21,08,17,13.30
2016,05,21,08,18,13.40
2016,05,21,08,19,13.50
2016,05,21,08,20,13.60
2016,05,21,08,21,13.70
2016,05,21,08,22,13.70
2016,05,21,08,23,13.80
2016,05,21,08,24,13.80
2016,05,21,08,25,13.90
2016,05,21,08,26,13.90
2016,05,21,08,27,13.90
2016,05,21,08,28,13.90
2016,05,21,08,29,13.90
2016,05,21,08,30,13.90
2016,05,21,08,31,14.00
2016,05,21,08,32,14.00
2016,05,21,08,33,14.10
2016,05,21,08,34,14.10
2016,05,21,08,35,14.10
2016,05,21,08,36,14.10
2016,05,21,08,37,14.20
2016,05,21,08,38,14.20
2016,05,21,08,39,14.30
2016,05,21,08,40,14.30
2016,05,21,08,41,14.30
2016,05,21,08,42,14.40
2016,05,21,08,43,14.40
2016,05,21,08,44,14.50
2016,05,21,08,45,14.50
2016,05,21,08,46,14.60
2016,05,21,08,47,14.70
2016,05,21,08,48,14.70
2016,05,21,08,49,14.80
2016,05,21,08,50,14.80
2016,05,21,08,51,14.90
2016,05,21,08,52,14.90
2016,05,21,08,53,15.00
2016,05,21,08,54,15.10
2016,05,21,08,55,15.10
2016,05,21,08,56,15.20
2016,05,21,08,57,15.20
2016,05,21,08,58,15.20
2016,05,21,08,59,15.30
2016,05,21,09,00,15.30
2016,05,21,09,01,15.30
2016,05,21,09,02,15.30
2016,05,21,09,03,15.30
2016,05,21,09,04,15.30
2016,05,21,09,05,15.40
2016,05,21,09,06,15.40
2016,05,21,09,07,15.50
2016,05,21,09,08,15.50
2016,05,21,09,09,15.70
2016,05,21,09,10,15.70
2016,05,21,09,11,15.80
2016,05,21,09,12,15.80
2016,05,21,09,13,15.90
2016,05,21,09,14,16.00
2016,05,21,09,15,16.00
2016,05,21,09,16,16.10
2016,05,21,09,17,16.10
2016,05,21,09,18,16.10
2016,05,21,09,19,16.20
2016,05,21,09,20,16.20
2016,05,21,09,21,16.30
2016,05,21,09,22,16.30
2016,05,21,09,23,16.40
2016,05,21,09,24,16.40
2016,05,21,09,25,16.40
2016,05,21,09,26,16.40
2016,05,21,09,27,16.40
2016,05,21,09,28,16.50
2016,05,21,09,29,16.50
2016,05,21,09,30,16.60
2016,05,21,09,31,16.60
2016,05,21,09,32,16.60
2016,05,21,09,33,16.70
2016,05,21,09,34,16.70
2016,05,21,09,35,16.70
2016,05,21,09,36,16.70
2016,05,21,09,37,16.80
2016,05,21,09,38,16.80
2016,05,21,09,39,16.80
2016,05,21,09,40,16.80
2016,05,21,09,41,16.80
2016,05,21,09,42,16.80
2016,05,21,09,43,16.90
2016,05,21,09,44,16.90
2016,05,21,09,45,16.90
2016,05,21,09,46,17.00
2016,05,21,09,47,17.10
2016,05,21,09,48,17.10
2016,05,21,09,49,17.20
2016,05,21,09,50,17.30
2016,05,21,09,51,17.30
2016,05,21,09,52,17.30
2016,05,21,09,53,17.40
2016,05,21,09,54,17.40
2016,05,21,09,55,17.50
2016,05,21,09,56,17.60
2016,05,21,09,57,17.60
2016,05,21,09,58,17.70
2016,05,21,09,59,17.70
2016,05,21,10,00,17.70
2016,05,21,10,01,17.70
2016,05,21,10,02,17.70
2016,05,21,10,03,17.60
2016,05,21,10,04,17.60
2016,05,21,10,05,17.50
2016,05,21,10,06,17.50
2016,05,21,10,07,17.50
2016,05,21,10,08,17.50
2016,05,21,10,09,17.50
2016,05,21,10,10,17.50
2016,05,21,10,11,17.60
2016,05,21,10,12,17.60
2016,05,21,10,13,17.60
2016,05,21,10,14,17.60
2016,05,21,10,15,17.50
2016,05,21,10,16,17.50
2016,05,21,10,17,17.60
2016,05,21,10,18,17.60
2016,05,21,10,19,17.60
2016,05,21,10,20,17.60
2016,05,21,10,21,17.60
2016,05,21,10,22,17.60
2016,05,21,10,23,17.60
2016,05,21,10,24,17.60
2016,05,21,10,25,17.60
2016,05,21,10,26,17.60
2016,05,21,10,27,17.60
2016,05,21,10,28,17.60
2016,05,21,10,29,17.50
2016,05,21,10,30,17.50
2016,05,21,10,31,17.40
2016,05,21,10,32,17.40
2016,05,21,10,33,17.40
2016,05,21,10,34,17.40
2016,05,21,10,35,17.40
2016,05,21,10,36,17.40
2016,05,21,10,37,17.40
2016,05,21,10,38,17.40
2016,05,21,10,39,17.40
2016,05,21,10,40,17.40
2016,05,21,10,41,17.30
2016,05,21,10,42,17.30
2016,05,21,10,43,17.30
2016,05,21,10,44,17.30
2016,05,21,10,45,17.30
2016,05,21,10,46,17.40
2016,05,21,10,47,17.40
2016,05,21,10,48,17.40
2016,05,21,10,49,17.50
2016,05,21,10,50,17.50
2016,05,21,10,51,17.50
2016,05,21,10,52,17.60
2016,05,21,10,53,17.60
2016,05,21,10,54,17.70
2016,05,21,10,55,17.80
2016,05,21,10,56,17.80
2016,05,21,10,57,17.90
2016,05,21,10,58,18.00
2016,05,21,10,59,18.00
2016,05,21,11,00,18.00
2016,05,21,11,01,18.10
2016,05,21,11,02,18.10
2016,05,21,11,03,18.20
2016,05,21,11,04,18.20
2016,05,21,11,05,18.30
2016,05,21,11,06,18.40
2016,05,21,11,07,18.40
2016,05,21,11,08,18.40
2016,05,21,11,09,18.50
2016,05,21,11,10,18.60
2016,05,21,11,11,18.60
2016,05,21,11,12,18.60
2016,05,21,11,13,18.60
2016,05,21,11,14,18.70
2016,05,21,11,15,18.70
2016,05,21,11,16,18.70
2016,05,21,11,17,18.70
2016,05,21,11,18,18.80
2016,05,21,11,19,18.80
2016,05,21,11,20,18.80
2016,05,21,11,21,18.80
2016,05,21,11,22,18.80
2016,05,21,11,23,18.90
2016,05,21,11,24,18.90
2016,05,21,11,25,19.00
2016,05,21,11,26,18.90
2016,05,21,11,27,18.90
2016,05,21,11,28,18.80
2016,05,21,11,29,18.80
2016,05,21,11,30,18.80
2016,05,21,11,31,18.70
2016,05,21,11,32,18.70
2016,05,21,11,33,18.70
2016,05,21,11,34,18.70
2016,05,21,11,35,18.60
2016,05,21,11,36,18.70
2016,05,21,11,37,18.70
2016,05,21,11,38,18.70
2016,05,21,11,39,18.70
2016,05,21,11,40,18.60
2016,05,21,11,41,18.60
2016,05,21,11,42,18.60
2016,05,21,11,43,18.70
2016,05,21,11,44,18.70
2016,05,21,11,45,18.80
2016,05,21,11,46,18.80
2016,05,21,11,47,18.90
2016,05,21,11,48,18.90
2016,05,21,11,49,18.80
2016,05,21,11,50,18.80
2016,05,21,11,51,18.80
2016,05,21,11,52,18.80
2016,05,21,11,53,18.80
2016,05,21,11,54,18.80
2016,05,21,11,55,18.80
2016,05,21,11,56,18.80
2016,05,21,11,57,18.80
2016,05,21,11,58,18.80
2016,05,21,11,59,18.80
2016,05,21,12,00,18.80
2016,05,21,12,01,18.90
2016,05,21,12,02,18.90
2016,05,21,12,03,18.90
2016,05,21,12,04,18.80
2016,05,21,12,05,18.70
2016,05,21,12,06,18.70
2016,05,21,12,07,18.60
2016,05,21,12,08,18.50
2016,05,21,12,09,18.50
2016,05,21,12,10,18.40
2016,05,21,12,11,18.40
2016,05,21,12,12,18.40
2016,05,21,12,13,18.40
2016,05,21,12,14,18.30
2016,05,21,12,15,18.40
2016,05,21,12,16,18.40
2016,05,21,12,17,18.40
2016,05,21,12,18,18.40
2016,05,21,12,19,18.30
2016,05,21,12,20,18.30
2016,05,21,12,21,18.20
2016,05,21,12,22,18.20
2016,05,21,12,23,18.20
2016,05,21,12,24,18.10
2016,05,21,12,25,18.10
2016,05,21,12,26,18.10
2016,05,21,12,27,18.10
2016,05,21,12,28,18.10
2016,05,21,12,29,18.10
2016,05,21,12,30,18.10
2016,05,21,12,31,18.10
2016,05,21,12,32,18.10
2016,05,21,12,33,18.10
2016,05,21,12,34,18.10
2016,05,21,12,35,18.10
2016,05,21,12,36,18.10
2016,05,21,12,37,18.10
2016,05,21,12,38,18.10
2016,05,21,12,39,18.10
2016,05,21,12,40,18.10
2016,05,21,12,41,18.00
2016,05,21,12,42,18.00
2016,05,21,12,43,18.00
2016,05,21,12,44,18.00
2016,05,21,12,45,18.10
2016,05,21,12,46,18.10
2016,05,21,12,47,18.10
2016,05,21,12,48,18.10
2016,05,21,12,49,18.20
2016,05,21,12,50,18.20
2016,05,21,12,51,18.20
2016,05,21,12,52,18.30
2016,05,21,12,53,18.30
2016,05,21,12,54,18.40
2016,05,21,12,55,18.40
2016,05,21,12,56,18.40
2016,05,21,12,57,18.50
2016,05,21,12,58,18.50
2016,05,21,12,59,18.60
2016,05,21,13,00,18.70
2016,05,21,13,01,18.70
2016,05,21,13,02,18.70
2016,05,21,13,03,18.60
2016,05,21,13,04,18.60
2016,05,21,13,05,18.50
2016,05,21,13,06,18.50
2016,05,21,13,07,18.50
2016,05,21,13,08,18.50
2016,05,21,13,09,18.50
2016,05,21,13,10,18.60
2016,05,21,13,11,18.60
2016,05,21,13,12,18.60
2016,05,21,13,13,18.50
2016,05,21,13,14,18.50
2016,05,21,13,15,18.40
2016,05,21,13,16,18.40
2016,05,21,13,17,18.40
2016,05,21,13,18,18.40
2016,05,21,13,19,18.50
2016,05,21,13,20,18.50
2016,05,21,13,21,18.50
2016,05,21,13,22,18.50
2016,05,21,13,23,18.40
2016,05,21,13,24,18.40
2016,05,21,13,25,18.40
2016,05,21,13,26,18.40
2016,05,21,13,27,18.40
2016,05,21,13,28,18.40
2016,05,21,13,29,18.50
2016,05,21,13,30,18.50
2016,05,21,13,31,18.60
2016,05,21,13,32,18.70
2016,05,21,13,33,18.80
2016,05,21,13,34,18.80
2016,05,21,13,35,18.80
2016,05,21,13,36,18.80
2016,05,21,13,37,18.70
2016,05,21,13,38,18.70
2016,05,21,13,39,18.70
2016,05,21,13,40,18.70
2016,05,21,13,41,18.70
2016,05,21,13,42,18.70
2016,05,21,13,43,18.60
2016,05,21,13,44,18.60
2016,05,21,13,45,18.60
2016,05,21,13,46,18.60
2016,05,21,13,47,18.70
2016,05,21,13,48,18.70
2016,05,21,13,49,18.70
2016,05,21,13,50,18.80
2016,05,21,13,51,18.70
2016,05,21,13,52,18.70
2016,05,21,13,53,18.70
2016,05,21,13,54,18.70
2016,05,21,13,55,18.70
2016,05,21,13,56,18.70
2016,05,21,13,57,18.60
2016,05,21,13,58,18.60
2016,05,21,13,59,18.70
2016,05,21,14,00,18.60
2016,05,21,14,01,18.60
2016,05,21,14,02,18.60
2016,05,21,14,03,18.60
2016,05,21,14,04,18.60
2016,05,21,14,05,18.60
2016,05,21,14,06,18.60
2016,05,21,14,07,18.60
2016,05,21,14,08,18.60
2016,05,21,14,09,18.70
2016,05,21,14,10,18.70
2016,05,21,14,11,18.70
2016,05,21,14,12,18.70
2016,05,21,14,13,18.70
2016,05,21,14,14,18.60
2016,05,21,14,15,18.70
2016,05,21,14,16,18.70
2016,05,21,14,17,18.70
2016,05,21,14,18,18.70
2016,05,21,14,19,18.70
2016,05,21,14,20,18.70
2016,05,21,14,21,18.80
2016,05,21,14,22,18.80
2016,05,21,14,23,18.90
2016,05,21,14,24,18.90
2016,05,21,14,25,18.90
2016,05,21,14,26,18.90
2016,05,21,14,27,18.90
2016,05,21,14,28,19.00
2016,05,21,14,29,19.00
2016,05,21,14,30,19.00
2016,05,21,14,31,19.10
2016,05,21,14,32,19.20
2016,05,21,14,33,19.30
2016,05,21,14,34,19.40
2016,05,21,14,35,19.40
2016,05,21,14,36,19.40
2016,05,21,14,37,19.40
2016,05,21,14,38,19.40
2016,05,21,14,39,19.50
2016,05,21,14,40,19.60
2016,05,21,14,41,19.60
2016,05,21,14,42,19.60
2016,05,21,14,43,19.50
2016,05,21,14,44,19.50
2016,05,21,14,45,19.50
2016,05,21,14,46,19.50
2016,05,21,14,47,19.50
2016,05,21,14,48,19.50
2016,05,21,14,49,19.40
2016,05,21,14,50,19.40
2016,05,21,14,51,19.40
2016,05,21,14,52,19.40
2016,05,21,14,53,19.40
2016,05,21,14,54,19.50
2016,05,21,14,55,19.50
2016,05,21,14,56,19.60
2016,05,21,14,57,19.60
2016,05,21,14,58,19.70
2016,05,21,14,59,19.60
2016,05,21,15,00,19.60
2016,05,21,15,01,19.50
2016,05,21,15,02,19.30
2016,05,21,15,03,19.20
2016,05,21,15,04,19.10
2016,05,21,15,05,19.00
2016,05,21,15,06,18.90
2016,05,21,15,07,18.80
2016,05,21,15,08,18.80
2016,05,21,15,09,18.80
2016,05,21,15,10,18.70
2016,05,21,15,11,18.80
2016,05,21,15,12,18.80
2016,05,21,15,13,18.90
2016,05,21,15,14,19.00
2016,05,21,15,15,19.10
2016,05,21,15,16,19.20
2016,05,21,15,17,19.20
2016,05,21,15,18,19.20
2016,05,21,15,19,19.20
2016,05,21,15,20,19.20
2016,05,21,15,21,19.10
2016,05,21,15,22,19.10
2016,05,21,15,23,19.10
2016,05,21,15,24,19.00
2016,05,21,15,25,19.00
2016,05,21,15,26,19.00
2016,05,21,15,27,19.00
2016,05,21,15,28,19.00
2016,05,21,15,29,19.10
2016,05,21,15,30,19.10
2016,05,21,15,31,19.20
2016,05,21,15,32,19.20
2016,05,21,15,33,19.30
2016,05,21,15,34,19.40
2016,05,21,15,35,19.50
2016,05,21,15,36,19.60
2016,05,21,15,37,19.60
2016,05,21,15,38,19.60
2016,05,21,15,39,19.60
2016,05,21,15,40,19.50
2016,05,21,15,41,19.50
2016,05,21,15,42,19.60
2016,05,21,15,43,19.60
2016,05,21,15,44,19.60
2016,05,21,15,45,19.60
2016,05,21,15,46,19.60
2016,05,21,15,47,19.60
2016,05,21,15,48,19.60
2016,05,21,15,49,19.60
2016,05,21,15,50,19.60
2016,05,21,15,51,19.60
2016,05,21,15,52,19.60
2016,05,21,15,53,19.60
2016,05,21,15,54,19.60
2016,05,21,15,55,19.70
2016,05,21,15,56,19.70
2016,05,21,15,57,19.70
2016,05,21,15,58,19.70
2016,05,21,15,59,19.70
2016,05,21,16,00,19.70
2016,05,21,16,01,19.70
2016,05,21,16,02,19.70
2016,05,21,16,03,19.70
2016,05,21,16,04,19.80
2016,05,21,16,05,19.80
2016,05,21,16,06,19.90
2016,05,21,16,07,20.00
2016,05,21,16,08,20.10
2016,05,21,16,09,20.20
2016,05,21,16,10,20.20
2016,05,21,16,11,20.30
2016,05,21,16,12,20.30
2016,05,21,16,13,20.30
2016,05,21,16,14,20.30
2016,05,21,16,15,20.30
2016,05,21,16,16,20.30
2016,05,21,16,17,20.30
2016,05,21,16,18,20.30
2016,05,21,16,19,20.20
2016,05,21,16,20,20.20
2016,05,21,16,21,20.10
2016,05,21,16,22,20.10
2016,05,21,16,23,20.00
2016,05,21,16,24,20.00
2016,05,21,16,25,20.00
2016,05,21,16,26,20.10
2016,05,21,16,27,20.10
2016,05,21,16,28,20.10
2016,05,21,16,29,20.10
2016,05,21,16,30,20.10
2016,05,21,16,31,20.10
2016,05,21,16,32,20.10
2016,05,21,16,33,20.10
2016,05,21,16,34,20.00
2016,05,21,16,35,20.00
2016,05,21,16,36,20.00
2016,05,21,16,37,20.00
2016,05,21,16,38,20.00
2016,05,21,16,39,20.00
2016,05,21,16,40,20.00
2016,05,21,16,41,20.00
2016,05,21,16,42,20.00
2016,05,21,16,43,19.90
2016,05,21,16,44,19.80
2016,05,21,16,45,19.70
2016,05,21,16,46,19.70
2016,05,21,16,47,19.60
2016,05,21,16,48,19.50
2016,05,21,16,49,19.50
2016,05,21,16,50,19.50
2016,05,21,16,51,19.50
2016,05,21,16,52,19.60
2016,05,21,16,53,19.60
2016,05,21,16,54,19.60
2016,05,21,16,55,19.60
2016,05,21,16,56,19.60
2016,05,21,16,57,19.50
2016,05,21,16,58,19.50
2016,05,21,16,59,19.50
2016,05,21,17,00,19.40
2016,05,21,17,01,19.40
2016,05,21,17,02,19.30
2016,05,21,17,03,19.20
2016,05,21,17,04,19.10
2016,05,21,17,05,19.10
2016,05,21,17,06,19.00
2016,05,21,17,07,19.00
2016,05,21,17,08,19.00
2016,05,21,17,09,19.00
2016,05,21,17,10,19.00
2016,05,21,17,11,19.00
2016,05,21,17,12,19.10
2016,05,21,17,13,19.10
2016,05,21,17,14,19.10
2016,05,21,17,15,19.00
2016,05,21,17,16,19.00
2016,05,21,17,17,18.90
2016,05,21,17,18,18.90
2016,05,21,17,19,18.80
2016,05,21,17,20,18.80
2016,05,21,17,21,18.80
2016,05,21,17,22,18.70